STARLINK-32742, 62605

Orbit data source: Space-Track

STARLINK-32742, 62605 is a payload satellite owned by SpaceX/Seattle (US) in LEO that was launched on Mon, 13 Jan 2025 UTC via an FALCON 9 launch vehicle from the Air Force Eastern Test Range (AFETR). Payloads include a variety of satellites, spacecraft, and rockets equipped with specific instruments for various scientific and technological missions. These include communications satellites like Starlink; space stations such as the ISS; scientific satellites like the Hubble; Earth observation satellites from companies like Planet Labs, Umbra, and HawkEye 360; GPS; miniature CubeSats for education and research; and military/defense satellites.

Loading next visibility...
STARLINK-32742 details
Identifier
62605, 2025-008U
Orbit
LEO
Last TLE update7 hours ago
Origin
Flag of USSpaceX/Seattle (US)
ManufacturerSpaceX/Seattle
MissionOperational spacecraft
Bus & MotorSTARLINK V2M, Unknown motor
Mass730 kg wet, ~700 kg dry
Launch date (UTC)
2025-01-13 (1 month ago)
Launch vehicle
FALCON 9
Launch site
Air Force Eastern Test Range (AFETR)
Object type
Payload
Rocket body
Debris
Shape & HBRUnknown
Radar Cross SectionLarge (>1 m²)

Expand to show TLE details & history

TLE from 7 hours ago
0 STARLINK-32742
1 62605U 25008U   25047.16668981  .00031269  00000-0  75325-3 0  9993
2 62605  42.9991 301.8363 0001868 274.8181 269.7900 15.40679016  6483
Epoch: 2025-02-16T04:00Z
Definitive object data (Epoch: 2025-02-16T04:00:01.999Z)
Latitude-3.20351°
Longitude-81.1537°
Altitude444.355 km
Speed7.647 km/s
True Right ascension08h 21m 01s
True Declination-3° 11' 01"
Sunlit
Object was in full shadow at TLE epoch
Visualization TLE readout
Latitude35.52016°
Longitude143.26242°
Altitude446.589 km
Speed7.649 km/s
Apparent Right ascension00h 34m 10s
Apparent Declination0° 44' 15"
Sunlit
Object is in daylight
Visualization observer readout
Local Sidereal Time14:00:19
Azimuth32.023° NE
Elevation-46.189°
Doppler factor1
Orbital elements
Apogee altitude447.335 km
Perigee altitude444.786 km
Semi-major axis6,824.197 km
Eccentricity0.0001868
Inclination42.9991°
RAAN301.8363°
Arg. of periapsis274.8181°
True anomaly269.76859°
Mean anomaly269.79°
Eccentric anomaly269.7793°
Mean motion3.85004 °/min
BSTAR0.00075325
Orbital period93.51 mins
Loading maneuver chart data...
Loading historical data...
Loading historical data...
Loading historical data...
Loading historical data...
Loading historical data...
Loading historical data...
Loading historical data...

STARLINK-32742 Visibility forecast

Observer location: undefined°, undefined

Span
Click to sort rows by Start time (UTC) header in descending order
Start Az.
Max El. time (UTC)
Max El. Az.
Max El.
End time (UTC)
End Az.
6 mins2025-02-16 20:31:59.768Z230.457° WSW2025-02-16 20:34:59.768Z171.821° S37.457°2025-02-16 20:37:59.768Z80.775° E
5 mins2025-02-16 22:10:59.768Z277.027° WNW2025-02-16 22:12:59.768Z325.177° NNW38.582°2025-02-16 22:15:59.768Z67.695° E
5 mins2025-02-16 23:49:59.768Z300.271° NW2025-02-16 23:51:59.768Z36.663° NE38.883°2025-02-16 23:54:59.768Z88.957° E
5 mins2025-02-17 01:27:59.768Z269.355° W2025-02-17 01:29:59.768Z188.836° SSW36.35°2025-02-17 01:32:59.768Z131.191° SE
|